Date String (YYYY-MM-DD hh:mm:ss) UTC,Instrument flags,Ambient pressure (hPa),Sample flow (lpm),Bypass flow (lpm),Sample temperature (°C),Ambient temperature (°C),ASC tube jacket temperature (°C),LED temperature (°C),Box temperature (°C),Sample RH (%),Span deviation,Mass concentration (μg/m³),Mass concentration (μg/m³),Mass concentration (μg/m³)
DateTimeUTC,F1_M11,P_M11,Q1_M11,Q2_M11,T1_M11,T2_M11,T3_M11,T4_M11,T5_M11,U1_M11,ZSPAN_M11,X2_M11,X0_M11,X1_M11
2022-08-12 10:00:00,,0830.7,5.00,0.00,29.6,28.3,00.0,38.4,31.5,25.9,0000.0,0006.34,0014.80,0005.37
2022-08-12 10:01:00,,0830.7,5.00,0.00,29.6,28.3,00.0,38.4,31.5,25.9,0000.0,0006.38,0015.03,0005.37
2022-08-12 10:02:00,,0830.7,5.00,0.00,29.6,28.4,00.0,38.4,31.5,25.9,0000.0,0006.40,0014.55,0005.35
2022-08-12 10:03:00,,0830.6,5.00,0.00,29.6,28.5,00.0,38.4,31.6,25.7,0000.0,0006.41,0014.29,0005.36
2022-08-12 10:04:00,,0830.6,5.00,0.00,29.7,28.6,00.0,38.4,31.6,24.9,0000.0,0006.41,0013.34,0005.37
2022-08-12 10:05:00,,0830.6,5.01,0.00,29.7,28.6,00.0,38.5,31.7,24.8,0000.0,0006.36,0013.10,0005.37
2022-08-12 10:06:00,,0830.6,5.00,0.00,29.7,28.7,00.0,38.5,31.7,24.5,0000.0,0006.33,0013.04,0005.38
2022-08-12 10:07:00,,0830.6,5.00,0.00,29.8,28.7,00.0,38.5,31.7,24.5,0000.0,0006.33,0012.89,0005.37
2022-08-12 10:08:00,,0830.6,5.00,0.00,29.8,28.6,00.0,38.5,31.7,24.3,0000.0,0006.33,0012.62,0005.37
2022-08-12 10:09:00,,0830.5,5.00,0.00,29.7,27.9,00.0,38.5,31.5,24.2,0000.0,0006.35,0013.04,0005.37
2022-08-12 10:10:00,,0830.5,5.00,0.00,29.7,27.5,00.0,38.4,31.5,24.2,0000.0,0006.33,0013.22,0005.37
2022-08-12 10:11:00,,0830.5,5.00,0.00,29.6,27.4,00.0,38.4,31.3,24.3,0000.0,0006.33,0012.87,0005.38
2022-08-12 10:12:00,,0830.5,4.99,0.00,29.6,27.5,00.0,38.4,31.3,24.5,0000.0,0006.31,0012.76,0005.38
2022-08-12 10:13:00,,0830.4,5.01,0.00,29.5,27.6,00.0,38.4,31.3,24.6,0000.0,0006.26,0012.50,0005.39
2022-08-12 10:14:00,,0830.4,5.01,0.00,29.5,27.7,00.0,38.4,31.4,24.8,0000.0,0006.19,0012.26,0005.37
2022-08-12 10:15:00,,0830.4,4.99,0.00,29.5,27.9,00.0,38.4,31.4,24.9,0000.0,0006.11,0012.12,0005.34
2022-08-12 10:16:00,,0830.4,5.01,0.00,29.5,28.0,00.0,38.4,31.4,24.9,0000.0,0006.11,0012.61,0005.32
2022-08-12 10:17:00,,0830.4,5.00,0.00,29.5,28.1,00.0,38.4,31.4,25.0,0000.0,0006.11,0013.44,0005.28
2022-08-12 10:18:00,,0830.4,5.00,0.00,29.5,28.2,00.0,38.4,31.5,25.0,0000.0,0006.12,0013.67,0005.26
2022-08-12 10:19:00,,0830.5,5.00,0.00,29.6,28.3,00.0,38.4,31.5,25.0,0000.0,0006.14,0013.97,0005.25
2022-08-12 10:20:00,,0830.5,5.00,0.00,29.6,28.4,00.0,38.4,31.5,25.0,0000.0,0006.10,0013.55,0005.22
2022-08-12 10:21:00,,0830.5,5.01,0.00,29.6,28.4,00.0,38.4,31.5,25.0,0000.0,0006.10,0014.06,0005.20
2022-08-12 10:22:00,,0830.5,5.00,0.00,29.6,28.5,00.0,38.4,31.5,24.9,0000.0,0006.09,0014.38,0005.16
2022-08-12 10:23:00,,0830.6,5.00,0.00,29.6,28.6,00.0,38.4,31.6,24.9,0000.0,0006.13,0014.42,0005.16
2022-08-12 10:24:00,,0830.6,5.00,0.00,29.7,28.6,00.0,38.4,31.6,24.6,0000.0,0006.12,0013.98,0005.13
2022-08-12 10:25:00,,0830.6,5.00,0.00,29.7,28.7,00.0,38.5,31.7,24.2,0000.0,0006.15,0014.55,0005.11
2022-08-12 10:26:00,,0830.6,4.99,0.00,29.7,28.7,00.0,38.5,31.7,23.9,0000.0,0006.13,0014.46,0005.09
2022-08-12 10:27:00,,0830.6,5.01,0.00,29.8,28.8,00.0,38.5,31.7,23.7,0000.0,0006.07,0013.62,0005.06
2022-08-12 10:28:00,,0830.5,5.00,0.00,29.8,28.8,00.0,38.5,31.7,23.3,0000.0,0006.02,0012.67,0005.03
2022-08-12 10:29:00,,0830.5,4.99,0.00,29.8,28.9,00.0,38.5,31.7,23.1,0000.0,0005.96,0012.37,0005.01
2022-08-12 10:30:00,,0830.5,4.99,0.00,29.8,28.7,00.0,38.5,31.7,23.2,0000.0,0005.90,0011.78,0005.00
2022-08-12 10:31:00,,0830.5,5.01,0.00,29.8,28.0,00.0,38.5,31.6,23.2,0000.0,0005.87,0011.50,0004.99
2022-08-12 10:32:00,,0830.5,5.00,0.00,29.7,27.6,00.0,38.5,31.5,23.2,0000.0,0005.86,0010.77,0004.97
2022-08-12 10:33:00,,0830.5,5.00,0.00,29.6,27.5,00.0,38.5,31.4,23.5,0000.0,0005.84,0010.35,0004.95
2022-08-12 10:34:00,,0830.5,5.00,0.00,29.6,27.6,00.0,38.4,31.3,23.8,0000.0,0005.75,0010.14,0004.92
2022-08-12 10:35:00,,0830.5,5.01,0.00,29.6,27.7,00.0,38.4,31.4,23.7,0000.0,0005.74,0010.20,0004.91
2022-08-12 10:36:00,,0830.6,5.00,0.00,29.6,27.8,00.0,38.4,31.4,23.4,0000.0,0005.71,0009.70,0004.92
2022-08-12 10:37:00,,0830.6,4.99,0.00,29.6,27.9,00.0,38.4,31.4,23.2,0000.0,0005.72,0009.65,0004.92
2022-08-12 10:38:00,,0830.5,5.01,0.00,29.6,28.1,00.0,38.4,31.5,23.2,0000.0,0005.73,0010.16,0004.93
2022-08-12 10:39:00,,0830.5,4.99,0.00,29.6,28.2,00.0,38.4,31.5,23.3,0000.0,0005.75,0010.66,0004.95
2022-08-12 10:40:00,,0830.5,5.01,0.00,29.6,28.3,00.0,38.4,31.5,22.8,0000.0,0005.77,0011.30,0004.96
2022-08-12 10:41:00,,0830.5,5.00,0.00,29.6,28.3,00.0,38.4,31.5,22.7,0000.0,0005.74,0011.68,0004.94
2022-08-12 10:42:00,,0830.5,4.99,0.00,29.6,28.4,00.0,38.5,31.6,22.8,0000.0,0005.72,0011.61,0004.93
2022-08-12 10:43:00,,0830.5,4.99,0.00,29.7,28.5,00.0,38.5,31.6,22.7,0000.0,0005.70,0011.62,0004.92
2022-08-12 10:44:00,,0830.5,5.01,0.00,29.7,28.5,00.0,38.5,31.6,22.6,0000.0,0005.72,0011.80,0004.91
2022-08-12 10:45:00,,0830.5,5.00,0.00,29.7,28.6,00.0,38.5,31.7,22.5,0000.0,0005.72,0011.92,0004.90
2022-08-12 10:46:00,,0830.5,5.00,0.00,29.7,28.7,00.0,38.5,31.7,22.5,0000.0,0005.66,0011.75,0004.87
2022-08-12 10:47:00,,0830.6,5.00,0.00,29.8,28.7,00.0,38.5,31.7,22.2,0000.0,0005.63,0011.73,0004.84
2022-08-12 10:48:00,,0830.6,5.00,0.00,29.8,28.8,00.0,38.5,31.8,22.1,0000.0,0005.62,0011.76,0004.81
2022-08-12 10:49:00,,0830.6,5.00,0.00,29.8,28.8,00.0,38.5,31.8,22.1,0000.0,0005.60,0011.45,0004.79
2022-08-12 10:50:00,,0830.6,5.00,0.00,29.8,28.9,00.0,38.6,31.8,22.1,0000.0,0005.59,0011.02,0004.76
2022-08-12 10:51:00,,0830.6,4.99,0.00,29.8,28.8,00.0,38.6,31.8,22.3,0000.0,0005.57,0010.49,0004.74
2022-08-12 10:52:00,,0830.5,5.02,0.00,29.8,28.1,00.0,38.5,31.6,22.5,0000.0,0005.58,0010.32,0004.72
2022-08-12 10:53:00,,0830.5,4.98,0.00,29.8,27.6,00.0,38.5,31.5,22.3,0000.0,0005.58,0010.34,0004.71
2022-08-12 10:54:00,,0830.5,5.00,0.00,29.7,27.5,00.0,38.5,31.4,22.6,0000.0,0005.57,0010.61,0004.71
2022-08-12 10:55:00,,0830.5,5.00,0.00,29.6,27.5,00.0,38.5,31.4,22.4,0000.0,0005.49,0010.64,0004.70
2022-08-12 10:56:00,,0830.6,4.99,0.00,29.6,27.6,00.0,38.5,31.4,22.2,0000.0,0005.49,0010.70,0004.68
2022-08-12 10:57:00,,0830.6,5.01,0.00,29.6,27.8,00.0,38.5,31.4,21.9,0000.0,0005.47,0010.63,0004.65
2022-08-12 10:58:00,,0830.7,4.99,0.00,29.6,27.9,00.0,38.4,31.4,21.8,0000.0,0005.41,0010.48,0004.62
2022-08-12 10:59:00,,0830.7,5.00,0.00,29.6,28.0,00.0,38.4,31.5,22.1,0000.0,0005.36,0010.34,0004.58
